TimeAKDT,TemperatureF,Dew PointF,Humidity,Sea Level PressureIn,VisibilityMPH,Wind Direction,Wind SpeedMPH,Gust SpeedMPH,PrecipitationIn,Events,Conditions,WindDirDegrees,DateUTC
12:56 AM,48.0,44.1,86,29.84,10.0,East,5.8,-,N/A,,Overcast,90,2013-09-20 08:56:00
1:56 AM,48.9,42.1,77,29.79,10.0,ESE,4.6,-,N/A,,Scattered Clouds,120,2013-09-20 09:56:00
2:56 AM,50.0,43.0,77,29.75,10.0,ESE,5.8,-,N/A,,Clear,120,2013-09-20 10:56:00
3:56 AM,52.0,44.1,74,29.70,10.0,Variable,5.8,-,N/A,,Overcast,0,2013-09-20 11:56:00
4:49 AM,53.6,44.6,72,29.61,10.0,South,11.5,-,N/A,,Overcast,170,2013-09-20 12:49:00
4:56 AM,53.1,45.0,74,29.62,10.0,SSE,11.5,-,N/A,,Overcast,160,2013-09-20 12:56:00
5:09 AM,53.6,46.4,77,29.57,10.0,SSE,10.4,-,N/A,,Overcast,160,2013-09-20 13:09:00
5:21 AM,51.8,46.4,82,29.56,10.0,SSE,12.7,18.4,N/A,,Mostly Cloudy,160,2013-09-20 13:21:00
5:56 AM,53.1,48.0,83,29.54,10.0,South,9.2,-,0.00,Rain,Light Rain,180,2013-09-20 13:56:00
6:09 AM,51.8,48.2,88,29.49,10.0,SE,3.5,-,0.00,Rain,Light Rain,140,2013-09-20 14:09:00
6:10 AM,51.8,48.2,88,29.48,10.0,Variable,4.6,-,0.00,Rain,Light Rain,0,2013-09-20 14:10:00
6:56 AM,55.0,50.0,83,29.40,7.0,SE,13.8,-,0.04,Rain,Light Rain,130,2013-09-20 14:56:00
7:56 AM,55.0,48.9,80,29.31,7.0,SSE,11.5,28.8,0.08,Rain,Light Rain,160,2013-09-20 15:56:00
8:13 AM,55.4,48.2,77,29.25,8.0,SSE,12.7,18.4,0.06,Rain,Light Rain,150,2013-09-20 16:13:00
8:14 AM,55.4,48.2,77,29.26,6.0,SSE,13.8,18.4,0.06,Rain,Light Rain,150,2013-09-20 16:14:00
8:16 AM,55.4,48.2,77,29.25,8.0,SSE,15.0,18.4,0.06,Rain,Light Rain,150,2013-09-20 16:16:00
8:28 AM,55.4,48.2,77,29.23,8.0,SSE,11.5,21.9,0.06,Rain,Light Rain,160,2013-09-20 16:28:00
8:40 AM,55.4,48.2,77,29.20,10.0,SSE,15.0,19.6,0.06,Rain,Light Rain,150,2013-09-20 16:40:00
8:56 AM,55.9,50.0,80,29.18,10.0,SE,12.7,-,0.06,,Overcast,140,2013-09-20 16:56:00
9:12 AM,57.2,50.0,77,29.14,10.0,South,11.5,19.6,0.00,,Overcast,170,2013-09-20 17:12:00
9:20 AM,57.2,50.0,77,29.14,8.0,South,11.5,-,0.00,Rain,Light Rain,190,2013-09-20 17:20:00
9:49 AM,57.2,50.0,77,29.11,10.0,SE,11.5,-,0.00,,Overcast,140,2013-09-20 17:49:00
9:56 AM,57.0,50.0,77,29.12,10.0,Variable,3.5,-,0.00,,Overcast,0,2013-09-20 17:56:00
10:56 AM,59.0,50.0,72,29.07,10.0,WSW,9.2,19.6,N/A,,Overcast,240,2013-09-20 18:56:00
11:56 AM,59.0,48.9,69,29.01,10.0,WSW,10.4,18.4,N/A,,Overcast,250,2013-09-20 19:56:00
12:56 PM,57.0,46.0,67,28.96,10.0,WSW,28.8,38.0,N/A,,Overcast,250,2013-09-20 20:56:00
1:00 PM,57.2,46.4,67,28.94,10.0,WSW,24.2,38.0,N/A,,Overcast,240,2013-09-20 21:00:00
1:33 PM,55.4,46.4,72,28.90,8.0,SW,25.3,34.5,0.00,Rain,Light Rain,230,2013-09-20 21:33:00
1:56 PM,55.0,46.0,72,28.89,9.0,SW,34.5,43.7,0.00,Rain,Light Rain,230,2013-09-20 21:56:00
1:58 PM,55.4,46.4,72,28.87,9.0,SW,33.4,44.9,0.00,Rain,Light Rain,230,2013-09-20 21:58:00
1:59 PM,55.4,46.4,72,28.87,9.0,SW,34.5,44.9,0.00,Rain,Light Rain,230,2013-09-20 21:59:00
2:43 PM,53.6,46.4,77,28.81,4.0,SW,29.9,44.9,0.00,Rain,Light Rain,230,2013-09-20 22:43:00
2:53 PM,53.6,44.6,72,28.81,3.0,SW,34.5,46.0,0.00,Rain,Light Rain,230,2013-09-20 22:53:00
2:56 PM,53.1,45.0,74,28.82,3.0,WSW,38.0,57.5,0.00,Rain,Light Rain,240,2013-09-20 22:56:00
2:59 PM,53.6,44.6,72,28.79,2.5,SW,46.0,62.1,0.00,Rain,Light Rain,220,2013-09-20 22:59:00
3:47 PM,53.6,44.6,72,28.80,3.0,SW,34.5,59.8,N/A,Rain,Light Rain,230,2013-09-20 23:47:00
3:56 PM,52.0,45.0,77,28.81,1.5,SW,38.0,52.9,N/A,Rain,Light Rain,220,2013-09-20 23:56:00
4:03 PM,51.8,44.6,76,28.80,5.0,WSW,20.7,46.0,0.00,Rain,Light Rain,240,2013-09-21 00:03:00
4:30 PM,53.6,44.6,72,28.82,5.0,WSW,40.3,62.1,0.01,Rain,Light Rain,250,2013-09-21 00:30:00
4:54 PM,53.6,44.6,72,28.85,1.8,West,58.7,73.6,0.01,Rain,Light Rain,270,2013-09-21 00:54:00
4:56 PM,53.1,45.0,74,28.87,1.8,West,57.5,79.4,0.01,Rain,Light Rain,260,2013-09-21 00:56:00
5:56 PM,52.0,45.0,77,28.95,1.8,West,43.7,56.4,0.03,Rain,Light Rain,260,2013-09-21 01:56:00
6:08 PM,51.8,44.6,76,28.94,3.0,West,40.3,61.0,0.01,Rain,Light Rain,260,2013-09-21 02:08:00
6:54 PM,51.8,44.6,76,28.99,8.0,West,41.4,52.9,0.02,Rain,Light Rain,280,2013-09-21 02:54:00
6:56 PM,51.1,44.1,77,29.01,8.0,West,40.3,52.9,0.02,Rain,Light Rain,280,2013-09-21 02:56:00
7:56 PM,50.0,43.0,77,29.09,10.0,WNW,31.1,39.1,0.00,,Overcast,290,2013-09-21 03:56:00
8:56 PM,51.1,43.0,74,29.16,10.0,WNW,18.4,29.9,N/A,,Overcast,300,2013-09-21 04:56:00
9:56 PM,50.0,42.1,74,29.21,10.0,WNW,27.6,38.0,0.00,Rain,Light Rain,290,2013-09-21 05:56:00
10:56 PM,48.0,42.1,80,29.27,8.0,NW,34.5,47.2,0.03,Rain,Light Rain,310,2013-09-21 06:56:00
11:56 PM,48.0,41.0,77,29.33,9.0,NW,34.5,46.0,0.00,Rain,Light Rain,310,2013-09-21 07:56:00